Location: Newark
(26.7031°N, 81.8844°W)
Time: 02:16:30
(UTC+00:00)

N. Korean satellite - Visible Passes

Search period start: 23 January 2020 00:00
Search period end: 02 February 2020 00:00
Orbit: 454 x 507 km, 97.2° (Epoch: 22 January)

Date Brightness Start Highest point End Pass type
(mag) Time Alt. Az. Time Alt. Az. Time Alt. Az.
23 Jan 6.7 11:23:48 10° N 11:27:16 49° WNW 11:30:47 10° SSW visible
23 Jan 9.7 23:26:12 10° SW 23:28:24 16° W 23:30:36 10° NW visible
24 Jan 7.1 10:58:16 10° NNE 11:01:50 62° E 11:05:26 10° S visible
25 Jan 9.0 10:33:18 10° NE 10:36:20 25° E 10:39:22 10° SSE visible
26 Jan 10.2 10:09:48 10° E 10:10:45 11° E 10:11:41 10° ESE visible
26 Jan 7.5 11:40:59 10° NNW 11:44:05 27° WNW 11:47:12 10° SW visible
27 Jan 6.5 11:15:05 10° N 11:18:41 69° WNW 11:22:19 10° SSW visible
28 Jan 7.8 10:49:43 10° NNE 10:53:12 45° E 10:56:44 10° S visible
29 Jan 9.4 10:25:01 10° NE 10:27:40 19° E 10:30:22 10° SE visible
30 Jan 7.1 11:32:07 10° N 11:35:29 36° WNW 11:38:53 10° SW visible
30 Jan 10.1 23:35:15 10° WSW 23:36:37 12° W 23:38:00 10° WNW visible
31 Jan 6.6 11:06:24 10° NNE 11:10:04 87° E 11:13:45 10° S visible
01 Feb 8.4 10:41:13 10° NNE 10:44:34 34° E 10:47:56 10° SSE visible
